ATLAS 5 CENTAUR DEB, 43982

Orbit data source: Space-Track

ATLAS 5 CENTAUR DEB, 43982 is space debris in HEO originally from a launch on Wed, 17 Sep 2014 UTC launched from the Air Force Eastern Test Range (AFETR). Debris objects in space refer to the collection of defunct objects orbiting the Earth. Examples of debris include non-operational satellites, rocket bodies, and fragments generated from explosions, collisions, or faulty payload assembly.

Loading next visibility...
Identifier
43982, 2014-055AM
Orbit
HEO
Country
Flag of USUS
Related business
Flag of USUnited Launch Alliance/Lockheed Martin (US)
Manufacturer
Unknown
Mission
Spacecraft
Bus & Motor
Unknown
Mass
Unknown
Launch date (UTC)
2014-09-17 (12 years ago)
Launch vehicle
Unknown
Launch site
Air Force Eastern Test Range (AFETR)
Object type
Payload
Rocket body
Debris
Shape & HBR
Unknown shape, 1.1 m
Radar Cross Section
Medium (>0.1 m² and <1 m²)

Expand to show TLE details & history
Last TLE update: 2 days ago

TLE from 2 days ago
0 ATLAS 5 CENTAUR DEB
1 43982U 14055AM  26234.26531018 -.00000024  00000-0  00000-0 0  9991
2 43982  19.0332 186.3070 4718336  90.9971 321.2841  1.75459096 50976
Epoch: 2026-08-22T06:22Z
TLE epoch observation values (Epoch: 2026-08-22T06:22:02.799Z)
Latitude
-0.00001°
Longitude
120.11796°
Altitude
16,412.689 km
Speed
4.61 km/s
True Right ascension
12h 24m 49s
True Declination
0° 00' 00"
Sunlit
Object was in daylight at epoch
Visualization orbit readout
Latitude
Unknown
Longitude
Unknown
Altitude
Unknown
Speed
Unknown
Apparent Right ascension
Unknown
Apparent Declination
Unknown
Sunlit
N/A
Visualization observer readout
Local Sidereal Time
15:53:46
Azimuth
Unknown
Elevation
Unknown
Doppler factor
Unknown
Orbital elements
Apogee altitude
36,362.21 km
Perigee altitude
8,959.205 km
Semi-major axis
29,038.845 km
Eccentricity
0.47183
Inclination
19.0332°
RAAN
186.307°
Arg. of periapsis
90.9971°
True anomaly
268.9802°
Mean anomaly
321.2841°
Eccentric anomaly
297.25044°
Mean motion
0.43861 °/min
Orbital period
820.78 mins
BSTAR
0
Loading maneuver chart data...
Computing Atmospheric mass density...

Documentation

Showing up to 5 results
|